Back to catalog

SL-12 R/B(2)

AliveHEO
NORAD 25788·ROCKET BODY·🇷🇺 Russia

Launched Jun 18, 1999 from Baikonur Cosmodrome

Loading…

Next Passes (next 24 hours)

TLE

FreshSource: Space-Track

Epoch: Sep 13, 2026, 17:49 UTC

1 25788U 99033D   26256.74285457 -.00000150  00000-0  00000-0 0  9994
2 25788  17.5058 358.9802 5075960 110.2566 319.1695  1.85811743184775

Track SL-12 R/B(2) in real time with AllMySat

Download on the App Store